Location: ??????????
(48.4699°N, 37.9573°E)
Time: 13:41:19
(UTC+00:00)

Okean-O - Pass Details

Date: 20 January 2021
Orbit: 638 x 641 km, 98.2° (Epoch: 27 February)

Event Time Altitude Azimuth Distance (km) Brightness Sun altitude
Rises 16:29:05 0° 180° (S) 2,934 6.1 -22.9°
Reaches altitude 10° 16:31:20 10° 186° (S) 2,030 5.3 -23.3°
Maximum altitude 16:35:37 47° 260° (W) 848 3.6 -24.0°
Drops below altitude 10° 16:39:56 10° 335° (NNW) 2,046 5.5 -24.7°
Sets 16:42:13 0° 342° (NNW) 2,960 6.2 -25.1°
